EW3197 Weather Reports


Display with metric or nautical units.
time (UTC)temp
F
wind
direction
speed
MPH
gust
MPH
rain 1hr
in
rain 24hr
in
rain mn
in
humidity
%
barometer
mb
20260504033703 37 298 0.0 0.0 0.00 0.00 0.00 78 1011.5
20260504033205 37 298 0.0 0.0 0.00 0.00 0.00 77 1011.4
20260504032704 37 298 0.0 0.0 0.00 0.00 0.00 77 1011.5
20260504032204 37 298 0.0 0.0 0.00 0.00 0.00 77 1011.5
20260504031705 37 298 0.0 0.0 0.00 0.00 0.00 77 1011.4
20260504031203 38 298 0.0 0.0 0.00 0.00 0.00 77 1011.4
20260504030704 38 298 0.0 0.0 0.00 0.00 0.00 77 1011.3
20260504030204 38 298 0.0 0.0 0.00 0.00 0.00 76 1011.3
20260504025704 39 298 0.0 0.0 0.00 0.00 0.00 75 1011.2
20260504025204 39 298 0.0 0.0 0.00 0.00 0.00 75 1011.2
20260504024704 39 298 0.0 0.0 0.00 0.00 0.00 75 1011.2
20260504024204 39 298 0.0 0.0 0.00 0.00 0.00 76 1011.2
20260504023703 40 298 0.0 0.0 0.00 0.00 0.00 75 1011.3
20260504022704 40 298 0.0 0.0 0.00 0.00 0.00 73 1011.4
20260504022203 40 298 0.0 0.0 0.00 0.00 0.00 73 1011.4
20260504021704 41 298 0.0 0.0 0.00 0.00 0.00 72 1011.4
20260504021204 41 298 0.0 0.0 0.00 0.00 0.00 71 1011.4
20260504020704 42 298 0.0 0.0 0.00 0.00 0.00 69 1011.3
20260504015704 42 298 0.0 0.0 0.00 0.00 0.00 69 1011.3
20260504015204 42 298 0.0 0.0 0.00 0.00 0.00 70 1011.2
20260504014704 42 298 0.0 0.0 0.00 0.00 0.00 69 1011.1
20260504013704 43 298 0.0 0.0 0.00 0.00 0.00 66 1011.1
20260504013204 44 298 0.0 0.0 0.00 0.00 0.00 65 1011.0
20260504011204 46 298 0.0 0.0 0.00 0.00 0.00 62 1010.8
20260504010704 47 298 0.0 0.0 0.00 0.00 0.00 60 1010.8
20260504010204 48 298 0.0 0.0 0.00 0.00 0.00 57 1010.7
20260504005704 49 298 0.0 2.0 0.00 0.00 0.00 51 1010.6
20260504005204 50 298 0.0 0.0 0.00 0.00 0.00 46 1010.6
20260504004704 50 298 1.0 3.0 0.00 0.00 0.00 45 1010.5
20260504004203 51 300 0.0 3.0 0.00 0.00 0.00 45 1010.5
20260504003704 51 300 1.0 2.0 0.00 0.00 0.00 44 1010.5
20260504003204 51 300 1.0 3.0 0.00 0.00 0.00 43 1010.4
20260504002703 51 300 1.0 3.0 0.00 0.00 0.00 43 1010.3
20260504002203 52 299 1.0 3.0 0.00 0.00 0.00 43 1010.3
20260504001704 52 299 1.0 3.0 0.00 0.00 0.00 42 1010.2
20260504000704 52 258 1.0 2.0 0.00 0.00 0.00 41 1009.9
20260504000204 52 265 1.0 9.0 0.00 0.00 0.00 42 1009.9
20260503235704 52 309 2.0 6.0 0.00 0.00 0.00 41 1009.9
20260503235204 52 267 1.0 10.0 0.00 0.00 0.00 41 1009.8
20260503234203 53 284 1.0 3.0 0.00 0.00 0.00 39 1009.7
20260503233704 53 274 1.0 8.0 0.00 0.00 0.00 37 1009.6
20260503232704 53 257 2.0 7.0 0.00 0.00 0.00 37 1009.6
20260503232204 54 216 3.0 9.0 0.00 0.00 0.00 38 1009.5
20260503231704 54 313 1.0 5.0 0.00 0.00 0.00 38 1009.4
20260503231204 54 304 1.0 7.0 0.00 0.00 0.00 36 1009.5
20260503230704 54 296 2.0 7.0 0.00 0.00 0.00 37 1009.4
20260503230203 54 288 4.0 12.0 0.00 0.00 0.00 35 1009.4
20260503224704 55 296 1.0 8.0 0.00 0.00 0.00 37 1009.2
20260503224203 55 310 3.0 7.0 0.00 0.00 0.00 35 1009.2
20260503223704 55 241 2.0 5.0 0.00 0.00 0.00 37 1009.2
20260503223203 55 288 2.0 5.0 0.00 0.00 0.00 36 1009.2
20260503222704 55 250 4.0 10.0 0.00 0.00 0.00 34 1009.2
20260503221704 55 292 3.0 12.0 0.00 0.00 0.00 35 1009.2
20260503221204 55 315 2.0 8.0 0.00 0.00 0.00 35 1009.2
20260503220704 55 211 2.0 12.0 0.00 0.00 0.00 36 1009.2
20260503215704 55 285 5.0 13.0 0.00 0.00 0.00 35 1009.1
20260503215204 56 326 3.0 12.0 0.00 0.00 0.00 35 1009.2
20260503214703 56 295 3.0 9.0 0.00 0.00 0.00 35 1009.1
20260503213704 56 314 3.0 14.0 0.00 0.00 0.00 36 1009.0
20260503212704 56 347 2.0 15.0 0.00 0.00 0.00 39 1009.0
20260503212204 56 291 5.0 12.0 0.00 0.00 0.00 39 1009.0
20260503211704 56 323 3.0 10.0 0.00 0.00 0.00 36 1009.0
20260503211203 56 300 2.0 5.0 0.00 0.00 0.00 36 1009.1
20260503210704 55 270 3.0 12.0 0.00 0.00 0.00 37 1009.1
20260503210204 56 272 4.0 18.0 0.00 0.00 0.00 36 1009.2
20260503205204 56 263 4.0 12.0 0.00 0.00 0.00 38 1009.1
20260503204704 56 279 3.0 12.0 0.00 0.00 0.00 39 1009.1
20260503204204 56 271 6.0 20.0 0.00 0.00 0.00 36 1009.3
20260503203704 56 311 6.0 20.0 0.00 0.00 0.00 39 1009.1
20260503203204 56 333 6.0 14.0 0.00 0.00 0.00 36 1009.1
20260503202703 56 263 4.0 14.0 0.00 0.00 0.00 40 1009.2
20260503202204 57 325 3.0 10.0 0.00 0.00 0.00 40 1009.3
20260503201703 56 298 2.0 13.0 0.00 0.00 0.00 41 1009.3
20260503201204 55 263 6.0 20.0 0.00 0.00 0.00 41 1009.3
20260503200704 55 275 3.0 8.0 0.00 0.00 0.00 43 1009.3
20260503200203 54 242 4.0 12.0 0.00 0.00 0.00 40 1009.5
20260503195704 54 228 2.0 15.0 0.00 0.00 0.00 43 1009.5
20260503195203 54 357 3.0 14.0 0.00 0.00 0.00 41 1009.6
20260503194704 55 301 6.0 12.0 0.00 0.00 0.00 40 1009.7
20260503194204 54 235 3.0 9.0 0.00 0.00 0.00 42 1009.8
20260503193204 53 277 6.0 13.0 0.00 0.00 0.00 41 1009.8
20260503192705 54 220 5.0 12.0 0.00 0.00 0.00 41 1009.9
20260503191704 53 260 3.0 8.0 0.00 0.00 0.00 45 1010.1
20260503191203 52 290 5.0 14.0 0.00 0.00 0.00 44 1009.9
20260503190204 51 289 4.0 10.0 0.00 0.00 0.00 45 1010.0
20260503185704 52 289 9.0 14.0 0.00 0.00 0.00 42 1010.1
20260503185204 52 326 5.0 12.0 0.00 0.00 0.00 43 1010.2
20260503184704 52 239 7.0 20.0 0.00 0.01 0.00 42 1010.1
20260503184204 52 225 5.0 13.0 0.00 0.01 0.00 42 1010.2
20260503182204 52 280 6.0 16.0 0.00 0.01 0.00 42 1010.2
20260503181705 52 313 6.0 13.0 0.00 0.01 0.00 42 1010.1
20260503181204 53 304 7.0 16.0 0.00 0.01 0.00 41 1010.1
20260503180704 52 301 4.0 12.0 0.00 0.01 0.00 45 1010.0
20260503180204 51 309 7.0 18.0 0.00 0.01 0.00 42 1010.2
20260503175704 52 280 6.0 14.0 0.00 0.01 0.00 44 1010.1
20260503175204 52 262 5.0 12.0 0.00 0.01 0.00 44 1010.0
20260503174704 52 254 3.0 8.0 0.00 0.01 0.00 44 1010.0
20260503174204 52 273 2.0 9.0 0.00 0.01 0.00 45 1010.0
20260503173203 51 305 5.0 10.0 0.00 0.01 0.00 45 1009.9
20260503172705 51 244 8.0 16.0 0.00 0.01 0.00 44 1010.0
20260503172204 51 326 3.0 18.0 0.00 0.01 0.00 44 1009.9
20260503171703 51 248 4.0 15.0 0.00 0.01 0.00 45 1009.9
20260503171204 50 289 5.0 16.0 0.00 0.01 0.00 43 1010.0
20260503170704 51 235 3.0 16.0 0.00 0.01 0.00 44 1010.1
20260503160204 48 256 2.0 7.0 0.00 0.01 0.00 53 1010.3
20260503150204 49 247 3.0 8.0 0.00 0.02 0.00 60 1010.5
20260503131205 46 312 3.0 10.0 0.00 0.03 0.00 66 1010.8
20260503130706 46 44 3.0 14.0 0.00 0.03 0.00 67 1010.8
20260503130205 45 341 4.0 13.0 0.00 0.03 0.00 68 1010.8
20260503120204 38 327 0.0 2.0 0.00 0.05 0.00 83 1010.7
20260503110705 34 328 0.0 0.0 0.00 0.05 0.00 85 1010.7
20260503110204 34 328 0.0 0.0 0.00 0.05 0.00 85 1010.6
20260503100205 32 328 0.0 0.0 0.00 0.06 0.00 85 1010.4
20260503090205 32 328 0.0 0.0 0.00 0.10 0.00 83 1010.5
20260503081204 35 328 0.0 0.0 0.00 0.13 0.00 80 1010.7
20260503080205 35 328 0.0 0.0 0.00 0.14 0.00 79 1010.8
20260503072704 36 328 0.0 0.0 0.00 0.17 0.00 77 1010.8
20260503072204 37 328 0.0 1.0 0.00 0.18 0.00 76 1010.8
20260503071705 37 328 0.0 2.0 0.00 0.19 0.00 75 1010.7
20260503070204 38 318 1.0 5.0 0.00 0.19 0.00 72 1010.8
20260503060204 41 290 1.0 3.0 0.00 0.23 0.00 67 1011.3
20260503054704 41 286 2.0 6.0 0.00 0.26 0.00 66 1011.4
20260503054204 42 293 2.0 12.0 0.00 0.26 0.00 65 1011.4
20260503053704 42 298 4.0 9.0 0.00 0.26 0.00 65 1011.5
20260503053203 42 324 2.0 9.0 0.00 0.26 0.00 65 1011.4
20260503052704 42 304 1.0 7.0 0.00 0.26 0.00 65 1011.5
20260503052204 42 275 4.0 9.0 0.00 0.26 0.00 64 1011.5
20260503051703 42 285 2.0 8.0 0.00 0.26 0.00 65 1011.6
20260503050704 42 247 1.0 6.0 0.00 0.26 0.00 66 1011.7
20260503050204 42 283 1.0 3.0 0.00 0.26 0.00 66 1011.8
20260503045704 42 301 1.0 2.0 0.00 0.26 0.00 66 1011.8
20260503044704 41 295 2.0 7.0 0.00 0.27 0.00 69 1011.9
20260503044203 40 267 1.0 5.0 0.00 0.27 0.00 71 1011.9
20260503043704 39 337 1.0 2.0 0.00 0.27 0.00 72 1011.9
20260503043204 39 333 0.0 2.0 0.00 0.27 0.00 72 1011.8
20260503042704 39 333 0.0 0.0 0.00 0.27 0.00 72 1012.0
20260503042204 39 333 0.0 1.0 0.00 0.27 0.00 71 1012.0
20260503041704 40 333 1.0 2.0 0.00 0.27 0.00 71 1012.1
20260503041204 40 334 0.0 1.0 0.00 0.28 0.00 69 1012.2
20260503040705 41 334 0.0 0.0 0.00 0.29 0.00 67 1012.2
20260503040204 41 334 0.0 1.0 0.00 0.30 0.00 66 1012.2
20260503035704 41 334 0.0 2.0 0.00 0.30 0.30 67 1012.1
20260503035204 41 334 1.0 3.0 0.00 0.30 0.30 66 1012.1